Location: Consuma
(43.7833°N, 11.5833°E)
Time: 18:50:09
(UTC+00:00)

Sich 1 - Pass Details

Date: 17 February 2020
Orbit: 595 x 625 km, 82.5° (Epoch: 29 March)

Event Time Altitude Azimuth Distance (km) Brightness Sun altitude
Rises 04:55:53 0° 354° (N) 2,848 6.4 -14.1°
Reaches altitude 10° 04:58:07 10° 358° (N) 1,943 5.6 -13.7°
Maximum altitude 05:02:22 63° 80° (E) 674 3.5 -12.9°
Drops below altitude 10° 05:06:37 10° 162° (SSE) 1,939 5.9 -12.2°
Sets 05:08:50 0° 165° (SSE) 2,841 6.7 -11.8°
